• In Deutschland
  • Länderverzeichnis
  • Für 7 Tage
  • Wassertemperatur
  • Satellitenkarten
  • Wetterkarte
  • Widgets
  • user-avatar
    Anmelden

    Stündliche Wetter Eiterfeld

    Heute, 19 Oktober, Donnerstag

    Zeit Temperatur Niederschläge Wind Luftdruck Luftfeuchtigkeit
    00:00 +11°C° 0 mm 1 m/S 731 mmHg 89%
    01:00 +10°C° 0 mm 1 m/S 731 mmHg 89%
    02:00 +10°C° 0 mm 1 m/S 731 mmHg 89%
    03:00 +10°C° 0 mm 1 m/S 730 mmHg 88%
    04:00 +10°C° 0 mm 1 m/S 730 mmHg 88%
    05:00 +10°C° 0 mm 1 m/S 730 mmHg 87%
    06:00 +9°C° 0 mm 1 m/S 730 mmHg 87%
    07:00 +9°C° 0 mm 1 m/S 730 mmHg 87%
    08:00 +10°C° 0 mm 2 m/S 730 mmHg 80%
    09:00 +13°C° 0 mm 2 m/S 731 mmHg 73%
    10:00 +15°C° 0 mm 2 m/S 731 mmHg 67%
    11:00 +16°C° 0 mm 2 m/S 731 mmHg 64%
    12:00 +18°C° 0 mm 2 m/S 731 mmHg 61%
    13:00 +19°C° 0 mm 3 m/S 731 mmHg 57%
    14:00 +19°C° 0 mm 3 m/S 731 mmHg 61%
    15:00 +19°C° 0 mm 2 m/S 730 mmHg 64%
    16:00 +18°C° 0 mm 2 m/S 730 mmHg 67%
    17:00 +17°C° 0 mm 2 m/S 730 mmHg 72%
    18:00 +15°C° 0 mm 2 m/S 730 mmHg 78%
    19:00 +13°C° 0 mm 2 m/S 730 mmHg 84%
    20:00 +13°C° 0 mm 2 m/S 730 mmHg 85%
    21:00 +13°C° 0 mm 2 m/S 730 mmHg 86%
    22:00 +12°C° 0 mm 2 m/S 730 mmHg 88%
    23:00 +12°C° 0 mm 1 m/S 731 mmHg 88%

    Morgen, 20 Oktober, Freitag

    Zeit Temperatur Niederschläge Wind Luftdruck Luftfeuchtigkeit
    00:00 +12°C° 0 mm 1 m/S 731 mmHg 88%
    01:00 +12°C° 0 mm 1 m/S 731 mmHg 89%
    02:00 +11°C° 0 mm 1 m/S 731 mmHg 88%
    03:00 +11°C° 0 mm 1 m/S 731 mmHg 87%
    04:00 +11°C° 0 mm 1 m/S 731 mmHg 87%
    05:00 +11°C° 0 mm 1 m/S 731 mmHg 86%
    06:00 +10°C° 0 mm 1 m/S 731 mmHg 86%
    07:00 +10°C° 0 mm 1 m/S 731 mmHg 86%
    08:00 +12°C° 0 mm 2 m/S 731 mmHg 80%
    09:00 +13°C° 0 mm 2 m/S 731 mmHg 75%
    10:00 +15°C° 0 mm 2 m/S 732 mmHg 69%
    11:00 +16°C° 0 mm 2 m/S 732 mmHg 67%
    12:00 +17°C° 0 mm 3 m/S 732 mmHg 64%
    13:00 +18°C° 0 mm 3 m/S 732 mmHg 61%
    14:00 +17°C° 0,3 mm 3 m/S 732 mmHg 69%
    15:00 +16°C° 0,3 mm 3 m/S 732 mmHg 76%
    16:00 +15°C° 0,3 mm 2 m/S 731 mmHg 83%
    17:00 +14°C° 0,2 mm 2 m/S 732 mmHg 86%
    18:00 +13°C° 0,2 mm 2 m/S 732 mmHg 89%
    19:00 +13°C° 0,2 mm 2 m/S 732 mmHg 92%
    20:00 +12°C° 0,1 mm 2 m/S 732 mmHg 93%
    21:00 +12°C° 0,1 mm 2 m/S 732 mmHg 94%
    22:00 +10°C° 0,1 mm 2 m/S 733 mmHg 95%
    23:00 +10°C° 0 mm 2 m/S 733 mmHg 96%

    übermorgen, 21 Oktober, Samstag

    Zeit Temperatur Niederschläge Wind Luftdruck Luftfeuchtigkeit
    00:00 +9°C° 0 mm 2 m/S 733 mmHg 96%
    01:00 +9°C° 0 mm 2 m/S 733 mmHg 96%
    02:00 +9°C° 0 mm 2 m/S 732 mmHg 96%
    03:00 +9°C° 0 mm 2 m/S 732 mmHg 96%
    04:00 +10°C° 0 mm 2 m/S 732 mmHg 96%
    05:00 +10°C° 0 mm 2 m/S 732 mmHg 95%
    06:00 +10°C° 0 mm 2 m/S 732 mmHg 95%
    07:00 +11°C° 0 mm 3 m/S 731 mmHg 94%
    08:00 +12°C° 0 mm 3 m/S 731 mmHg 90%
    09:00 +13°C° 0 mm 4 m/S 731 mmHg 86%
    10:00 +14°C° 0 mm 5 m/S 731 mmHg 82%
    11:00 +15°C° 0,1 mm 5 m/S 731 mmHg 79%
    12:00 +16°C° 0,1 mm 5 m/S 731 mmHg 77%
    13:00 +16°C° 0,1 mm 5 m/S 731 mmHg 74%
    14:00 +15°C° 1 mm 5 m/S 731 mmHg 80%
    15:00 +14°C° 1 mm 4 m/S 731 mmHg 86%
    16:00 +13°C° 1 mm 4 m/S 730 mmHg 92%
    17:00 +12°C° 0,6 mm 4 m/S 731 mmHg 92%
    18:00 +12°C° 0,6 mm 4 m/S 731 mmHg 92%
    19:00 +12°C° 0,6 mm 4 m/S 731 mmHg 93%
    20:00 +11°C° 0,1 mm 4 m/S 731 mmHg 93%
    21:00 +10°C° 0,1 mm 4 m/S 731 mmHg 93%
    22:00 +10°C° 0,1 mm 4 m/S 732 mmHg 93%
    23:00 +8°C° 0 mm 4 m/S 732 mmHg 92%

    22 Oktober, Sonntag

    Zeit Temperatur Niederschläge Wind Luftdruck Luftfeuchtigkeit
    00:00 +8°C° 0 mm 4 m/S 732 mmHg 92%
    01:00 +8°C° 0 mm 4 m/S 732 mmHg 92%
    02:00 +7°C° 0 mm 4 m/S 732 mmHg 92%
    03:00 +7°C° 0 mm 4 m/S 731 mmHg 92%
    04:00 +7°C° 0 mm 4 m/S 731 mmHg 92%
    05:00 +6°C° 0 mm 4 m/S 731 mmHg 91%
    06:00 +6°C° 0 mm 5 m/S 731 mmHg 91%
    07:00 +6°C° 0 mm 5 m/S 731 mmHg 90%
    08:00 +6°C° 0 mm 5 m/S 731 mmHg 87%
    09:00 +7°C° 0 mm 5 m/S 731 mmHg 84%
    10:00 +7°C° 0 mm 6 m/S 732 mmHg 81%
    11:00 +7°C° 0,1 mm 6 m/S 731 mmHg 79%
    12:00 +8°C° 0,1 mm 5 m/S 731 mmHg 78%
    13:00 +8°C° 0,1 mm 5 m/S 731 mmHg 76%
    14:00 +7°C° 0,2 mm 5 m/S 731 mmHg 78%
    15:00 +7°C° 0,2 mm 5 m/S 731 mmHg 79%
    16:00 +7°C° 0,2 mm 4 m/S 731 mmHg 81%
    17:00 +7°C° 0,2 mm 4 m/S 731 mmHg 83%
    18:00 +6°C° 0,2 mm 4 m/S 731 mmHg 86%
    19:00 +6°C° 0,2 mm 4 m/S 731 mmHg 88%
    20:00 +6°C° 0,1 mm 4 m/S 731 mmHg 89%
    21:00 +6°C° 0,1 mm 4 m/S 732 mmHg 90%
    22:00 +6°C° 0,1 mm 4 m/S 732 mmHg 90%
    23:00 +6°C° 0,1 mm 4 m/S 732 mmHg 91%

    23 Oktober, Montag

    Zeit Temperatur Niederschläge Wind Luftdruck Luftfeuchtigkeit
    00:00 +6°C° 0,1 mm 4 m/S 732 mmHg 91%
    01:00 +6°C° 0,1 mm 4 m/S 732 mmHg 91%
    02:00 +6°C° 0,2 mm 4 m/S 732 mmHg 91%
    03:00 +6°C° 0,2 mm 4 m/S 732 mmHg 91%
    04:00 +6°C° 0,2 mm 4 m/S 732 mmHg 91%
    05:00 +6°C° 0,2 mm 4 m/S 732 mmHg 92%
    06:00 +6°C° 0,2 mm 4 m/S 733 mmHg 92%
    07:00 +6°C° 0,2 mm 4 m/S 733 mmHg 93%
    08:00 +7°C° 0,2 mm 4 m/S 733 mmHg 91%
    09:00 +7°C° 0,2 mm 4 m/S 734 mmHg 90%
    10:00 +8°C° 0,2 mm 4 m/S 734 mmHg 88%
    11:00 +8°C° 0,1 mm 4 m/S 734 mmHg 87%
    12:00 +8°C° 0,1 mm 4 m/S 735 mmHg 85%
    13:00 +8°C° 0,1 mm 4 m/S 735 mmHg 83%
    14:00 +10°C° 0,1 mm 4 m/S 735 mmHg 84%
    15:00 +10°C° 0,1 mm 4 m/S 735 mmHg 84%
    16:00 +10°C° 0,1 mm 3 m/S 735 mmHg 84%
    17:00 +10°C° 0,1 mm 3 m/S 736 mmHg 87%
    18:00 +9°C° 0,1 mm 3 m/S 736 mmHg 89%
    19:00 +9°C° 0,1 mm 3 m/S 736 mmHg 91%
    20:00 +9°C° 0,2 mm 3 m/S 736 mmHg 92%
    21:00 +8°C° 0,2 mm 4 m/S 736 mmHg 93%
    22:00 +10°C° 0,2 mm 4 m/S 737 mmHg 93%
    23:00 +8°C° 0,1 mm 4 m/S 737 mmHg 93%

    24 Oktober, Dienstag

    Zeit Temperatur Niederschläge Wind Luftdruck Luftfeuchtigkeit
    00:00 +8°C° 0,1 mm 4 m/S 737 mmHg 93%
    01:00 +8°C° 0,1 mm 4 m/S 737 mmHg 94%
    02:00 +9°C° 0 mm 3 m/S 737 mmHg 94%
    03:00 +9°C° 0 mm 3 m/S 737 mmHg 94%
    04:00 +9°C° 0 mm 3 m/S 737 mmHg 94%
    05:00 +9°C° 0,2 mm 3 m/S 737 mmHg 95%
    06:00 +9°C° 0,2 mm 2 m/S 737 mmHg 95%
    07:00 +9°C° 0,2 mm 2 m/S 737 mmHg 95%
    08:00 +9°C° 0,4 mm 2 m/S 738 mmHg 94%
    09:00 +9°C° 0,4 mm 2 m/S 738 mmHg 94%
    10:00 +9°C° 0,4 mm 2 m/S 738 mmHg 93%
    11:00 +10°C° 0 mm 2 m/S 738 mmHg 91%
    12:00 +12°C° 0 mm 2 m/S 738 mmHg 88%
    13:00 +13°C° 0 mm 2 m/S 738 mmHg 85%
    14:00 +13°C° 0 mm 2 m/S 738 mmHg 85%
    15:00 +14°C° 0 mm 2 m/S 738 mmHg 84%
    16:00 +14°C° 0 mm 1 m/S 738 mmHg 84%
    17:00 +13°C° 0 mm 1 m/S 738 mmHg 87%
    18:00 +12°C° 0 mm 1 m/S 738 mmHg 90%
    19:00 +10°C° 0 mm 1 m/S 738 mmHg 93%
    20:00 +10°C° 0 mm 1 m/S 739 mmHg 93%
    21:00 +10°C° 0 mm 1 m/S 739 mmHg 93%
    22:00 +9°C° 0 mm 1 m/S 739 mmHg 94%
    23:00 +9°C° 0 mm 1 m/S 739 mmHg 94%
    Mehr zeigen